Regional Weather Roundup
Issued by NWS

Home | Current Version | Previous Version | Text Only | Print | Product List | Glossary On
Versions: 1 2 3 4 5 6 7 8 9 10 11 12 13 14 15 16 17 18 19 20 21 22 23 24 25 26 27 28 29 30 31 32 33 34 35 36 37 38 39 40 41 42 43 44 45 46 47 48 49 50
000
ASUS43 KTOP 281408
RWRKS

WEATHER ROUNDUP FOR KANSAS
NATIONAL WEATHER SERVICE GOODLAND KS
900 AM CDT THU MAY 28 2015

NOTE:  "FAIR" INDICATES FEW OR NO CLOUDS BELOW 12,000 FEET WITH NO
SIGNIFICANT WEATHER AND/OR OBSTRUCTIONS TO VISIBILITY.

KSZ001>006-013>018-027>032-041>047-281500-
NORTHWEST KANSAS

CITY           SKY/WX    TMP DP  RH WIND       PRES   REMARKS
GOODLAND       CLOUDY    63  59  87 SW8       30.03R
HAYS           CLOUDY    63  54  72 E9        30.03S
HILL CITY      CLOUDY    61  56  83 E6        30.04R
RUSSELL        CLOUDY    64  61  90 E8        30.02R
$$

KSZ061>065-074>080-084>089-281500-
SOUTHWEST KANSAS

CITY           SKY/WX    TMP DP  RH WIND       PRES   REMARKS
DODGE CITY     CLOUDY    64  53  67 SW8       30.01R
ELKHART          N/A     63  57  81 S9          N/A
GARDEN CITY    CLOUDY    60  55  83 SW12      30.00F
GREAT BEND     CLOUDY    63  57  82 E5        30.01R
LIBERAL        CLOUDY    64  54  68 S15       30.04F
PRATT          CLOUDY    66  63  88 S9        30.02R
$$

KSZ066>073-081>083-090>101-281500-
SOUTHEAST KANSAS

CITY           SKY/WX    TMP DP  RH WIND       PRES   REMARKS
CHANUTE        CLOUDY    68  66  93 VRB3      30.04F
COFFEYVILLE    CLOUDY    68  66  93 E6        30.04R
HUTCHINSON     CLOUDY    66  62  87 E12       29.99F
MEDICINE LODGE   N/A     66  63  90 SE9       29.97F
NEWTON         CLOUDY    64  61  88 E8        30.03F
PARSONS        LGT RAIN  69  67  93 VRB3      30.04F
WICHITA INTL   CLOUDY    68  63  84 SE9       30.01F
WICHITA JABRA  CLOUDY    66  64  93 MISG      30.02F
WICHITA MCCONL CLOUDY    67  64  90 E8        30.02F
WINFIELD       CLOUDY    67  65  93 SE3       30.04R
$$

KSZ007>012-019>026-033>040-048>060-102>105-281500-
NORTHEAST KANSAS

CITY           SKY/WX    TMP DP  RH WIND       PRES   REMARKS
CONCORDIA      CLOUDY    65  62  90 SE7       30.03S
EMPORIA        LGT RAIN  66  63  90 S3        30.05F
LAWRENCE       LGT RAIN  66  63  90 E8        30.07R
MANHATTAN      CLOUDY    66  63  90 E3        30.03F
MARYSVILLE     CLOUDY    63  63 100 SE7       30.04F
OLATHE IND     CLOUDY    66  63  90 NE8       30.08F
OLATHE EXE     CLOUDY    66  63  90 NE10      30.07F
SALINA         CLOUDY    67  63  87 SE10      30.02F
TOPEKA BILLARD CLOUDY    67  65  93 NE3       30.05F
TOPEKA FORBES  CLOUDY    68  64  87 CALM      30.05S
$$



USA.gov is the U.S. government's official web portal to all federal, state and local government web resources and services.